This is the latest recevied weather packets stored in our database for station/object KC4JES. If no packets are shown the sender has not sent any weather packets the latest 10 day(s).
| Time | Temp. | Humidity | Pressure | Rain* | Wind** | Luminosity | Snow |
|---|---|---|---|---|---|---|---|
| 1778168426 | 31.67° C | 52% | 1015.6 hPa | 0 mm | - | 155 W/m² | - |
| 1778168122 | 31.11° C | 52% | 1015.7 hPa | 0 mm | - | 150 W/m² | - |
| 1778167818 | 31.11° C | 53% | 1015.5 hPa | 0 mm | - | 155 W/m² | - |
| 1778167514 | 31.11° C | 55% | 1015.3 hPa | 0 mm | - | 152 W/m² | - |
| 1778167211 | 31.11° C | 51% | 1015.3 hPa | 0 mm | - | 162 W/m² | - |
| 1778166907 | 31.11° C | 51% | 1015.3 hPa | 0 mm | - | 149 W/m² | - |
| 1778166604 | 31.11° C | 54% | 1015.4 hPa | 0 mm | - | 143 W/m² | - |
| 1778166301 | 30.56° C | 55% | 1015.2 hPa | 0 mm | - | 113 W/m² | - |
| 1778165997 | 30.56° C | 56% | 1015.2 hPa | 0 mm | - | 105 W/m² | - |
| 1778165693 | 30° C | 58% | 1015.2 hPa | 0 mm | - | 89 W/m² | - |
| 1778165390 | 30° C | 57% | 1015 hPa | 0 mm | - | 81 W/m² | - |
| 1778165087 | 30° C | 59% | 1014.8 hPa | 0 mm | - | 93 W/m² | - |
| 1778164784 | 29.44° C | 59% | 1015.1 hPa | 0 mm | - | 101 W/m² | - |
| 1778164482 | 29.44° C | 61% | 1015.3 hPa | 0 mm | - | 103 W/m² | - |
| 1778164178 | 29.44° C | 63% | 1015.2 hPa | 0 mm | - | 145 W/m² | - |
| 1778163874 | 28.89° C | 61% | 1015.4 hPa | 0 mm | - | 135 W/m² | - |
| 1778163571 | 28.89° C | 63% | 1015.3 hPa | 0 mm | - | 114 W/m² | - |
| 1778163267 | 28.33° C | 64% | 1015.4 hPa | 0 mm | - | 100 W/m² | - |
| 1778162964 | 28.33° C | 64% | 1015.4 hPa | 0 mm | - | 104 W/m² | - |
| 1778162660 | 27.78° C | 65% | 1015.4 hPa | 0 mm | - | 90 W/m² | - |
| 1778162359 | 27.78° C | 64% | 1015.7 hPa | 0 mm | - | 88 W/m² | - |
| 1778162055 | 27.78° C | 66% | 1015.7 hPa | 0 mm | - | 66 W/m² | - |
| 1778161752 | 27.22° C | 66% | 1015.4 hPa | 0 mm | - | 79 W/m² | - |
| 1778161448 | 27.22° C | 67% | 1015.5 hPa | 0 mm | - | 70 W/m² | - |
| 1778161145 | 26.67° C | 69% | 1015.4 hPa | 0 mm | - | 68 W/m² | - |
* Rain latest hour (hover to see other rain measurements)
** Current wind speed in m/s (hover to see current wind gust speed)